Total_Precipitation_Accumulation
0.64 0.59 0.58 0.57 0.52 0.50 0.50 0.52 0.53 0.52 0.50 0.47 0.42 0.39 0.39 0.41 0.37 0.31 0.26 0.25 0.24 0.27 0.39 0.60 0.90 1.22 1.44 1.53 1.51 1.35 1.25 1.11 0.95 0.86 0.83 0.88 0.89 0.87 0.91 1.02 0.98 0.87 0.85
0.59 0.54 0.50 0.50 0.46 0.41 0.38 0.39 0.39 0.40 0.41 0.39 0.35 0.31 0.32 0.36 0.36 0.34 0.33 0.34 0.29 0.27 0.32 0.44 0.66 0.97 1.33 1.57 1.64 1.58 1.42 1.31 1.15 0.98 0.90 0.90 0.94 0.93 0.91 0.96 1.04 1.00 0.90
0.61 0.58 0.53 0.49 0.47 0.46 0.45 0.43 0.42 0.40 0.37 0.34 0.31 0.29 0.28 0.28 0.32 0.34 0.36 0.37 0.38 0.35 0.34 0.40 0.53 0.78 1.16 1.53 1.73 1.84 1.69 1.49 1.35 1.20 1.00 0.89 0.92 0.96 0.95 0.98 1.05 1.12 1.08
0.61 0.60 0.58 0.54 0.53 0.54 0.55 0.54 0.48 0.45 0.41 0.37 0.34 0.32 0.30 0.28 0.26 0.29 0.34 0.35 0.36 0.36 0.35 0.38 0.50 0.70 0.98 1.33 1.67 1.94 2.02 1.81 1.66 1.57 1.36 1.12 0.96 0.97 1.01 1.02 1.08 1.17 1.24
0.62 0.60 0.59 0.60 0.63 0.66 0.65 0.61 0.56 0.49 0.46 0.42 0.40 0.37 0.34 0.31 0.30 0.30 0.31 0.35 0.37 0.35 0.35 0.37 0.43 0.55 0.75 1.09 1.55 1.96 2.31 2.31 2.10 1.95 1.76 1.54 1.27 1.10 1.11 1.10 1.13 1.22 1.33
0.67 0.65 0.63 0.64 0.69 0.72 0.70 0.67 0.61 0.56 0.52 0.50 0.49 0.46 0.39 0.33 0.31 0.31 0.30 0.32 0.35 0.36 0.36 0.40 0.44 0.43 0.49 0.68 1.02 1.52 2.01 2.37 2.40 2.27 2.15 1.95 1.72 1.49 1.35 1.29 1.25 1.33 1.45
0.75 0.74 0.68 0.69 0.68 0.69 0.67 0.65 0.66 0.65 0.61 0.59 0.63 0.61 0.52 0.42 0.35 0.31 0.31 0.33 0.35 0.40 0.47 0.52 0.58 0.55 0.48 0.52 0.59 0.81 1.31 1.95 2.34 2.48 2.46 2.41 2.19 1.93 1.70 1.54 1.48 1.50 1.57
0.78 0.84 0.77 0.71 0.70 0.68 0.70 0.71 0.69 0.70 0.71 0.66 0.67 0.72 0.66 0.57 0.45 0.34 0.32 0.33 0.37 0.45 0.57 0.62 0.68 0.70 0.63 0.54 0.45 0.50 0.70 1.21 1.90 2.43 2.58 2.57 2.60 2.42 2.08 1.82 1.70 1.73 1.79
0.72 0.80 0.84 0.78 0.73 0.70 0.68 0.67 0.66 0.66 0.69 0.64 0.61 0.80 0.86 0.63 0.42 0.32 0.29 0.30 0.31 0.33 0.37 0.45 0.53 0.59 0.66 0.66 0.57 0.50 0.53 0.75 1.28 2.04 2.58 2.69 2.73 2.83 2.63 2.19 1.92 1.85 1.90
0.77 0.73 0.81 0.83 0.81 0.78 0.73 0.67 0.65 0.65 0.71 0.74 0.64 0.60 0.64 0.63 0.63 0.44 0.29 0.27 0.27 0.27 0.26 0.28 0.34 0.40 0.51 0.63 0.70 0.67 0.63 0.65 0.94 1.47 2.18 2.77 2.91 3.05 3.18 2.82 2.35 2.08 1.98
0.89 0.80 0.77 0.81 0.82 0.81 0.80 0.74 0.70 0.71 0.73 0.77 0.74 0.64 0.57 0.50 0.52 0.61 0.43 0.31 0.30 0.27 0.27 0.27 0.29 0.30 0.35 0.46 0.58 0.68 0.75 0.72 0.88 1.18 1.61 2.35 3.02 3.28 3.47 3.35 2.84 2.36 2.10
0.98 0.95 0.82 0.79 0.80 0.81 0.82 0.80 0.74 0.72 0.74 0.75 0.74 0.70 0.71 0.67 0.55 0.58 0.54 0.38 0.35 0.32 0.33 0.33 0.33 0.32 0.33 0.37 0.45 0.61 0.70 0.75 0.81 0.96 1.14 1.60 2.43 3.17 3.45 3.41 3.12 2.71 2.31
1.08 0.98 0.93 0.84 0.82 0.80 0.80 0.82 0.82 0.76 0.72 0.77 0.79 0.75 0.70 0.66 0.60 0.65 0.73 0.60 0.49 0.40 0.39 0.38 0.36 0.36 0.37 0.39 0.43 0.50 0.55 0.65 0.75 0.83 0.86 0.98 1.40 2.31 3.20 3.54 3.31 2.95 2.66
1.10 0.99 0.95 0.89 0.83 0.84 0.86 0.85 0.83 0.81 0.76 0.74 0.73 0.73 0.71 0.66 0.66 0.72 0.82 0.89 0.80 0.55 0.44 0.41 0.38 0.38 0.40 0.43 0.46 0.50 0.46 0.54 0.63 0.74 0.82 0.87 0.97 1.36 2.20 3.21 3.82 3.54 3.04
1.21 1.14 1.05 1.00 0.93 0.91 0.90 0.90 0.87 0.82 0.82 0.82 0.79 0.76 0.76 0.70 0.69 0.72 0.78 0.92 1.10 0.92 0.51 0.34 0.35 0.38 0.39 0.45 0.53 0.51 0.47 0.52 0.58 0.66 0.74 0.83 0.91 1.03 1.36 2.06 3.08 3.83 3.74
1.31 1.32 1.26 1.20 1.10 1.05 1.03 1.00 0.95 0.86 0.85 0.85 0.87 0.84 0.82 0.79 0.76 0.77 0.80 0.81 0.88 0.98 0.73 0.37 0.33 0.38 0.44 0.46 0.54 0.53 0.53 0.61 0.62 0.64 0.69 0.74 0.83 0.97 1.12 1.41 2.04 3.04 3.70
1.37 1.42 1.46 1.41 1.32 1.23 1.19 1.18 1.12 1.04 1.00 0.92 0.91 0.91 0.88 0.84 0.84 0.80 0.80 0.78 0.75 0.84 0.85 0.45 0.34 0.40 0.51 0.55 0.59 0.60 0.61 0.61 0.59 0.63 0.69 0.75 0.79 0.90 1.05 1.24 1.52 2.15 3.08
1.34 1.39 1.56 1.58 1.52 1.41 1.33 1.34 1.34 1.26 1.21 1.12 1.05 1.03 0.99 0.97 0.99 0.93 0.89 0.83 0.76 0.74 0.85 0.69 0.43 0.43 0.52 0.63 0.71 0.73 0.71 0.68 0.64 0.72 0.75 0.77 0.80 0.85 0.99 1.16 1.35 1.66 2.28
1.31 1.40 1.56 1.70 1.66 1.61 1.52 1.40 1.46 1.56 1.52 1.43 1.34 1.31 1.25 1.20 1.21 1.15 1.08 0.96 0.84 0.77 0.79 0.80 0.60 0.49 0.55 0.68 0.84 0.87 0.84 0.80 0.72 0.79 0.82 0.83 0.84 0.85 0.91 1.06 1.25 1.44 1.71
1.26 1.43 1.54 1.71 1.79 1.84 1.91 1.81 1.71 1.63 1.61 1.59 1.55 1.52 1.54 1.51 1.46 1.40 1.36 1.16 0.99 0.93 0.88 0.90 0.78 0.64 0.63 0.72 0.97 1.08 1.06 0.98 0.91 0.83 0.85 0.86 0.89 0.90 0.89 0.93 1.03 1.18 1.43
1.27 1.40 1.51 1.63 1.69 1.89 2.34 2.45 2.03 1.54 1.40 1.41 1.38 1.36 1.45 1.58 1.65 1.66 1.65 1.47 1.31 1.28 1.20 1.17 1.04 0.87 0.79 0.88 1.07 1.16 1.23 1.18 1.18 1.01 0.86 0.81 0.82 0.82 0.83 0.89 0.97 1.07 1.25
1.26 1.38 1.43 1.45 1.50 1.71 2.24 2.38 1.88 1.44 1.26 1.24 1.24 1.19 1.20 1.34 1.42 1.48 1.60 1.62 1.64 1.71 1.65 1.50 1.31 1.13 0.94 0.89 1.02 1.30 1.42 1.51 1.53 1.23 1.06 0.98 0.87 0.88 0.88 0.87 0.92 0.96 1.13
1.19 1.24 1.28 1.26 1.27 1.46 1.91 1.99 1.71 1.39 1.21 1.10 1.08 1.08 1.07 1.11 1.21 1.14 1.25 1.39 1.49 1.66 1.78 1.74 1.66 1.32 1.07 0.99 1.17 1.42 1.53 1.61 1.52 1.36 1.35 1.42 1.18 1.05 0.98 0.98 1.01 0.96 1.05
1.14 1.11 1.11 1.10 1.10 1.23 1.69 1.86 1.71 1.39 1.29 1.18 1.11 1.01 0.96 0.97 1.12 1.18 1.21 1.22 1.18 1.30 1.54 1.68 1.76 1.54 1.31 1.27 1.48 1.72 1.86 1.89 1.73 1.62 1.59 1.72 1.43 1.23 1.15 1.10 1.08 0.99 1.00
0.99 0.99 0.97 1.03 1.00 1.06 1.51 1.92 1.84 1.46 1.44 1.35 1.24 1.16 1.06 0.94 1.17 1.29 1.21 1.14 1.04 1.08 1.24 1.51 1.67 1.69 1.66 1.71 1.86 2.10 2.24 2.29 2.16 1.85 1.72 1.80 1.64 1.43 1.37 1.37 1.27 1.14 1.01
0.86 0.88 0.85 0.90 0.91 0.96 1.30 1.83 1.96 1.51 1.42 1.34 1.26 1.24 1.31 1.23 1.30 1.26 1.12 1.14 1.15 1.02 1.00 1.08 1.17 1.26 1.27 1.32 1.60 1.83 2.00 2.19 2.16 2.15 1.84 1.78 1.81 1.75 1.90 1.63 1.36 1.12 0.99